| time (UTC) | temp F | wind direction | speed MPH | gust MPH | rain 1hr in | rain 24hr in | rain mn in | humidity % | barometer mb |
| 20260508093056 | 50 | 0 | 0.0 | 2.0 | 0.00 | 0.00 | 0.00 | 80 | 1013.4 |
| 20260508092555 | 50 | 338 | 0.0 | 2.0 | 0.00 | 0.00 | 0.00 | 80 | 1013.4 |
| 20260508092055 | 50 | 0 | 0.0 | 3.0 | 0.00 | 0.00 | 0.00 | 80 | 1013.4 |
| 20260508091603 | 50 | 316 | 0.0 | 3.0 | 0.00 | 0.00 | 0.00 | 79 | 1013.4 |
| 20260508091053 | 50 | 47 | 1.0 | 3.0 | 0.00 | 0.00 | 0.00 | 80 | 1013.4 |
| 20260508090555 | 50 | 0 | 0.0 | 2.0 | 0.00 | 0.00 | 0.00 | 82 | 1013.3 |
| 20260508090114 | 50 | 342 | 0.0 | 2.0 | 0.00 | 0.00 | 0.00 | 83 | 1013.2 |
| 20260508085554 | 49 | 342 | 0.0 | 2.0 | 0.00 | 0.00 | 0.00 | 85 | 1013.1 |
| 20260508085055 | 49 | 0 | 0.0 | 1.0 | 0.00 | 0.00 | 0.00 | 87 | 1013.1 |
| 20260508084558 | 49 | 0 | 0.0 | 1.0 | 0.00 | 0.00 | 0.00 | 88 | 1013.1 |
| 20260508084054 | 49 | 0 | 0.0 | 0.0 | 0.00 | 0.00 | 0.00 | 88 | 1013.0 |
| 20260508083555 | 49 | 302 | 0.0 | 0.0 | 0.00 | 0.00 | 0.00 | 89 | 1012.9 |
| 20260508083059 | 50 | 0 | 0.0 | 0.0 | 0.00 | 0.00 | 0.00 | 89 | 1012.9 |
| 20260508082554 | 50 | 0 | 0.0 | 1.0 | 0.00 | 0.00 | 0.00 | 89 | 1012.8 |
| 20260508082056 | 50 | 0 | 0.0 | 1.0 | 0.00 | 0.00 | 0.00 | 90 | 1012.8 |
| 20260508081604 | 50 | 302 | 0.0 | 1.0 | 0.00 | 0.00 | 0.00 | 90 | 1012.7 |
| 20260508081053 | 50 | 0 | 0.0 | 1.0 | 0.00 | 0.00 | 0.00 | 90 | 1012.8 |
| 20260508080553 | 50 | 0 | 0.0 | 1.0 | 0.00 | 0.00 | 0.00 | 90 | 1012.6 |
| 20260508080055 | 50 | 0 | 0.0 | 1.0 | 0.00 | 0.00 | 0.00 | 90 | 1012.5 |
| 20260508075556 | 50 | 302 | 0.0 | 2.0 | 0.00 | 0.00 | 0.00 | 90 | 1012.4 |
| 20260508075059 | 50 | 302 | 0.0 | 2.0 | 0.00 | 0.00 | 0.00 | 91 | 1012.3 |
| 20260508074555 | 50 | 272 | 1.0 | 2.0 | 0.00 | 0.00 | 0.00 | 92 | 1012.2 |
| 20260508074055 | 50 | 203 | 0.0 | 1.0 | 0.00 | 0.00 | 0.00 | 92 | 1012.1 |
| 20260508073552 | 50 | 0 | 0.0 | 1.0 | 0.00 | 0.00 | 0.00 | 92 | 1012.1 |
| 20260508073110 | 50 | 0 | 0.0 | 1.0 | 0.00 | 0.00 | 0.00 | 92 | 1012.0 |
| 20260508072554 | 50 | 0 | 0.0 | 1.0 | 0.00 | 0.00 | 0.00 | 92 | 1011.9 |
| 20260508072055 | 50 | 0 | 0.0 | 2.0 | 0.00 | 0.00 | 0.00 | 93 | 1011.8 |
| 20260508071605 | 50 | 300 | 0.0 | 2.0 | 0.00 | 0.00 | 0.00 | 93 | 1011.7 |
| 20260508071055 | 50 | 0 | 0.0 | 3.0 | 0.00 | 0.00 | 0.00 | 93 | 1011.5 |
| 20260508070552 | 49 | 292 | 0.0 | 3.0 | 0.00 | 0.00 | 0.00 | 92 | 1011.3 |
| 20260508070058 | 49 | 313 | 1.0 | 3.0 | 0.00 | 0.00 | 0.00 | 93 | 1011.3 |
| 20260508065553 | 49 | 0 | 0.0 | 1.0 | 0.00 | 0.04 | 0.00 | 92 | 1011.2 |
| 20260508065052 | 49 | 0 | 0.0 | 1.0 | 0.00 | 0.04 | 0.00 | 91 | 1011.0 |
| 20260508064612 | 49 | 0 | 0.0 | 1.0 | 0.00 | 0.04 | 0.00 | 91 | 1011.0 |
| 20260508064055 | 49 | 231 | 0.0 | 1.0 | 0.00 | 0.04 | 0.00 | 91 | 1011.1 |
| 20260508063555 | 50 | 0 | 0.0 | 1.0 | 0.00 | 0.04 | 0.00 | 91 | 1011.0 |
| 20260508063109 | 50 | 0 | 0.0 | 1.0 | 0.00 | 0.04 | 0.00 | 91 | 1011.1 |
| 20260508062554 | 50 | 231 | 0.0 | 1.0 | 0.00 | 0.04 | 0.00 | 91 | 1011.0 |
| 20260508062054 | 50 | 166 | 0.0 | 0.0 | 0.00 | 0.04 | 0.00 | 90 | 1011.0 |
| 20260508061606 | 50 | 0 | 0.0 | 0.0 | 0.00 | 0.04 | 0.00 | 90 | 1011.0 |
| 20260508061052 | 50 | 0 | 0.0 | 0.0 | 0.00 | 0.04 | 0.00 | 90 | 1011.0 |
| 20260508060554 | 50 | 0 | 0.0 | 0.0 | 0.00 | 0.04 | 0.00 | 90 | 1011.1 |
| 20260508060105 | 50 | 0 | 0.0 | 0.0 | 0.00 | 0.04 | 0.00 | 90 | 1011.1 |
| 20260508055554 | 50 | 0 | 0.0 | 1.0 | 0.00 | 0.19 | 0.00 | 90 | 1011.1 |
| 20260508055054 | 50 | 0 | 0.0 | 1.0 | 0.00 | 0.19 | 0.00 | 90 | 1011.0 |
| 20260508054556 | 50 | 0 | 0.0 | 1.0 | 0.00 | 0.19 | 0.00 | 90 | 1011.1 |
| 20260508054057 | 50 | 0 | 0.0 | 1.0 | 0.00 | 0.19 | 0.00 | 90 | 1011.0 |
| 20260508053554 | 49 | 0 | 0.0 | 1.0 | 0.00 | 0.19 | 0.00 | 90 | 1011.1 |
| 20260508053058 | 49 | 0 | 0.0 | 1.0 | 0.00 | 0.19 | 0.00 | 90 | 1011.2 |
| 20260508052555 | 49 | 0 | 0.0 | 1.0 | 0.00 | 0.19 | 0.00 | 90 | 1011.2 |
| 20260508052053 | 49 | 0 | 0.0 | 1.0 | 0.00 | 0.19 | 0.00 | 90 | 1011.1 |
| 20260508051607 | 49 | 0 | 0.0 | 1.0 | 0.00 | 0.19 | 0.00 | 90 | 1011.1 |
| 20260508051052 | 49 | 0 | 0.0 | 1.0 | 0.00 | 0.19 | 0.00 | 90 | 1011.0 |
| 20260508050556 | 49 | 0 | 0.0 | 1.0 | 0.00 | 0.19 | 0.00 | 90 | 1011.1 |
| 20260508050055 | 49 | 0 | 0.0 | 1.0 | 0.00 | 0.19 | 0.00 | 91 | 1011.1 |
| 20260508045554 | 49 | 0 | 0.0 | 1.0 | 0.00 | 0.21 | 0.00 | 91 | 1011.2 |
| 20260508045054 | 49 | 0 | 0.0 | 1.0 | 0.00 | 0.21 | 0.00 | 91 | 1011.1 |
| 20260508044554 | 48 | 0 | 0.0 | 1.0 | 0.00 | 0.21 | 0.00 | 91 | 1011.0 |
| 20260508044055 | 48 | 0 | 0.0 | 1.0 | 0.00 | 0.21 | 0.00 | 91 | 1010.9 |
| 20260508043557 | 48 | 0 | 0.0 | 0.0 | 0.00 | 0.21 | 0.00 | 91 | 1010.9 |
| 20260508043055 | 48 | 0 | 0.0 | 0.0 | 0.00 | 0.21 | 0.00 | 90 | 1010.9 |
| 20260508042552 | 48 | 0 | 0.0 | 1.0 | 0.00 | 0.21 | 0.00 | 90 | 1010.9 |
| 20260508042052 | 48 | 0 | 0.0 | 1.0 | 0.00 | 0.21 | 0.00 | 90 | 1010.9 |
| 20260508041555 | 48 | 0 | 0.0 | 0.0 | 0.00 | 0.21 | 0.00 | 90 | 1010.8 |
| 20260508041055 | 48 | 0 | 0.0 | 1.0 | 0.00 | 0.21 | 0.00 | 90 | 1010.8 |
| 20260508040554 | 48 | 0 | 0.0 | 1.0 | 0.00 | 0.21 | 0.00 | 90 | 1010.8 |
| 20260508040100 | 48 | 0 | 0.0 | 1.0 | 0.00 | 0.21 | 0.00 | 90 | 1010.8 |
| 20260508035559 | 49 | 0 | 0.0 | 1.0 | 0.00 | 0.21 | 0.21 | 90 | 1010.8 |
| 20260508035055 | 49 | 0 | 0.0 | 1.0 | 0.00 | 0.21 | 0.21 | 89 | 1010.8 |
| 20260508034554 | 49 | 0 | 0.0 | 1.0 | 0.00 | 0.21 | 0.21 | 89 | 1010.8 |
| 20260508034054 | 49 | 0 | 0.0 | 0.0 | 0.00 | 0.21 | 0.21 | 89 | 1010.8 |
| 20260508033554 | 49 | 0 | 0.0 | 0.0 | 0.00 | 0.21 | 0.21 | 89 | 1010.8 |
| 20260508033059 | 49 | 0 | 0.0 | 0.0 | 0.00 | 0.21 | 0.21 | 89 | 1010.8 |
| 20260508032557 | 49 | 0 | 0.0 | 0.0 | 0.00 | 0.21 | 0.21 | 89 | 1010.9 |
| 20260508032054 | 49 | 0 | 0.0 | 0.0 | 0.00 | 0.21 | 0.21 | 89 | 1010.9 |
| 20260508031558 | 49 | 0 | 0.0 | 1.0 | 0.00 | 0.21 | 0.21 | 89 | 1011.0 |
| 20260508031052 | 49 | 0 | 0.0 | 1.0 | 0.00 | 0.21 | 0.21 | 89 | 1011.0 |
| 20260508030554 | 49 | 0 | 0.0 | 1.0 | 0.00 | 0.21 | 0.21 | 89 | 1010.8 |
| 20260508025554 | 50 | 0 | 0.0 | 0.0 | 0.00 | 0.21 | 0.21 | 89 | 1010.8 |
| 20260508025055 | 50 | 0 | 0.0 | 0.0 | 0.00 | 0.21 | 0.21 | 89 | 1010.9 |
| 20260508024617 | 50 | 0 | 0.0 | 0.0 | 0.00 | 0.21 | 0.21 | 89 | 1010.8 |
| 20260508024053 | 50 | 0 | 0.0 | 0.0 | 0.00 | 0.21 | 0.21 | 89 | 1010.8 |
| 20260508023555 | 50 | 0 | 0.0 | 0.0 | 0.00 | 0.21 | 0.21 | 88 | 1010.8 |
| 20260508023055 | 50 | 0 | 0.0 | 0.0 | 0.00 | 0.21 | 0.21 | 88 | 1010.7 |
| 20260508022551 | 50 | 0 | 0.0 | 0.0 | 0.00 | 0.21 | 0.21 | 88 | 1010.8 |
| 20260508022054 | 50 | 0 | 0.0 | 0.0 | 0.00 | 0.21 | 0.21 | 88 | 1010.9 |
| 20260508021601 | 51 | 0 | 0.0 | 0.0 | 0.00 | 0.21 | 0.21 | 88 | 1010.8 |
| 20260508021053 | 51 | 0 | 0.0 | 0.0 | 0.00 | 0.21 | 0.21 | 89 | 1010.7 |
| 20260508020554 | 51 | 0 | 0.0 | 1.0 | 0.00 | 0.21 | 0.21 | 89 | 1010.7 |
| 20260508020111 | 51 | 0 | 0.0 | 1.0 | 0.00 | 0.21 | 0.21 | 90 | 1010.8 |
| 20260508015552 | 51 | 0 | 0.0 | 0.0 | 0.00 | 0.21 | 0.21 | 90 | 1010.7 |
| 20260508015052 | 51 | 0 | 0.0 | 0.0 | 0.00 | 0.21 | 0.21 | 89 | 1010.7 |
| 20260508014557 | 51 | 0 | 0.0 | 0.0 | 0.00 | 0.21 | 0.21 | 89 | 1010.6 |
| 20260508014055 | 51 | 0 | 0.0 | 0.0 | 0.00 | 0.21 | 0.21 | 88 | 1010.5 |
| 20260508013552 | 51 | 0 | 0.0 | 0.0 | 0.00 | 0.21 | 0.21 | 88 | 1010.4 |
| 20260508013055 | 51 | 0 | 0.0 | 0.0 | 0.00 | 0.21 | 0.21 | 87 | 1010.4 |
| 20260508012555 | 51 | 0 | 0.0 | 0.0 | 0.00 | 0.21 | 0.21 | 87 | 1010.3 |
| 20260508012054 | 52 | 0 | 0.0 | 0.0 | 0.00 | 0.21 | 0.21 | 87 | 1010.2 |
| 20260508011605 | 52 | 0 | 0.0 | 0.0 | 0.00 | 0.21 | 0.21 | 87 | 1010.1 |
| 20260508011053 | 52 | 0 | 0.0 | 0.0 | 0.00 | 0.21 | 0.21 | 87 | 1010.1 |
| 20260508010553 | 52 | 0 | 0.0 | 0.0 | 0.00 | 0.21 | 0.21 | 86 | 1010.0 |
| 20260508010057 | 52 | 0 | 0.0 | 0.0 | 0.00 | 0.21 | 0.21 | 86 | 1010.1 |
| 20260508005607 | 52 | 0 | 0.0 | 0.0 | 0.00 | 0.21 | 0.21 | 85 | 1009.9 |
| 20260508005054 | 53 | 0 | 0.0 | 0.0 | 0.00 | 0.21 | 0.21 | 85 | 1010.0 |
| 20260508004600 | 53 | 0 | 0.0 | 1.0 | 0.00 | 0.21 | 0.21 | 84 | 1009.9 |
| 20260508004051 | 53 | 0 | 0.0 | 1.0 | 0.00 | 0.21 | 0.21 | 84 | 1009.9 |
| 20260508003554 | 54 | 0 | 0.0 | 0.0 | 0.00 | 0.21 | 0.21 | 83 | 1009.7 |
| 20260508003055 | 54 | 0 | 0.0 | 0.0 | 0.00 | 0.21 | 0.21 | 83 | 1009.7 |
| 20260508002554 | 54 | 0 | 0.0 | 1.0 | 0.00 | 0.21 | 0.21 | 83 | 1009.6 |
| 20260508002054 | 54 | 0 | 0.0 | 1.0 | 0.00 | 0.21 | 0.21 | 83 | 1009.6 |
| 20260508001553 | 55 | 0 | 0.0 | 0.0 | 0.00 | 0.21 | 0.21 | 82 | 1009.5 |
| 20260508001053 | 55 | 0 | 0.0 | 0.0 | 0.00 | 0.21 | 0.21 | 82 | 1009.5 |
| 20260508000554 | 56 | 0 | 0.0 | 0.0 | 0.00 | 0.21 | 0.21 | 82 | 1009.4 |
| 20260508000054 | 56 | 0 | 0.0 | 0.0 | 0.00 | 0.21 | 0.21 | 81 | 1009.3 |
| 20260507235553 | 56 | 0 | 0.0 | 0.0 | 0.00 | 0.21 | 0.21 | 81 | 1009.3 |
| 20260507235051 | 57 | 0 | 0.0 | 1.0 | 0.00 | 0.21 | 0.21 | 80 | 1009.2 |
| 20260507234557 | 57 | 0 | 0.0 | 1.0 | 0.00 | 0.21 | 0.21 | 80 | 1009.1 |
| 20260507234052 | 57 | 133 | 0.0 | 1.0 | 0.00 | 0.21 | 0.21 | 79 | 1009.0 |
| 20260507233554 | 57 | 0 | 0.0 | 1.0 | 0.00 | 0.21 | 0.21 | 79 | 1009.0 |
| 20260507233100 | 58 | 0 | 0.0 | 2.0 | 0.00 | 0.21 | 0.21 | 79 | 1009.0 |
| 20260507232551 | 58 | 0 | 0.0 | 2.0 | 0.00 | 0.21 | 0.21 | 79 | 1009.0 |
| 20260507232057 | 58 | 0 | 0.0 | 0.0 | 0.00 | 0.21 | 0.21 | 78 | 1008.9 |
| 20260507231552 | 58 | 0 | 0.0 | 0.0 | 0.00 | 0.21 | 0.21 | 78 | 1008.9 |
| 20260507231055 | 58 | 0 | 0.0 | 1.0 | 0.00 | 0.21 | 0.21 | 79 | 1009.0 |
| 20260507230557 | 58 | 0 | 0.0 | 1.0 | 0.00 | 0.21 | 0.21 | 78 | 1008.8 |
| 20260507230108 | 58 | 0 | 0.0 | 1.0 | 0.00 | 0.21 | 0.21 | 78 | 1008.8 |
| 20260507225553 | 59 | 0 | 0.0 | 1.0 | 0.00 | 0.21 | 0.21 | 77 | 1008.8 |
| 20260507225055 | 59 | 0 | 0.0 | 1.0 | 0.00 | 0.21 | 0.21 | 77 | 1008.7 |
| 20260507224555 | 59 | 0 | 0.0 | 1.0 | 0.00 | 0.21 | 0.21 | 78 | 1008.7 |
| 20260507224057 | 59 | 262 | 0.0 | 1.0 | 0.00 | 0.21 | 0.21 | 76 | 1008.6 |
| 20260507223553 | 59 | 0 | 0.0 | 1.0 | 0.00 | 0.21 | 0.21 | 77 | 1008.7 |
| 20260507223053 | 59 | 297 | 0.0 | 2.0 | 0.00 | 0.21 | 0.21 | 78 | 1008.8 |
| 20260507222553 | 59 | 300 | 0.0 | 2.0 | 0.00 | 0.21 | 0.21 | 76 | 1008.8 |
| 20260507222052 | 59 | 201 | 0.0 | 2.0 | 0.00 | 0.21 | 0.21 | 76 | 1008.8 |
| 20260507221556 | 59 | 230 | 0.0 | 2.0 | 0.00 | 0.21 | 0.21 | 77 | 1008.9 |
| 20260507221054 | 59 | 140 | 0.0 | 2.0 | 0.00 | 0.21 | 0.21 | 76 | 1008.8 |
| 20260507220553 | 59 | 159 | 0.0 | 1.0 | 0.00 | 0.21 | 0.21 | 77 | 1008.9 |
| 20260507220059 | 59 | 1 | 0.0 | 1.0 | 0.00 | 0.21 | 0.21 | 77 | 1008.8 |
| 20260507215556 | 59 | 1 | 0.0 | 2.0 | 0.00 | 0.21 | 0.21 | 76 | 1008.7 |
| 20260507215054 | 59 | 0 | 0.0 | 3.0 | 0.00 | 0.21 | 0.21 | 75 | 1008.8 |
| 20260507214555 | 59 | 148 | 1.0 | 3.0 | 0.00 | 0.21 | 0.21 | 72 | 1008.8 |
| 20260507214055 | 59 | 75 | 0.0 | 2.0 | 0.00 | 0.21 | 0.21 | 73 | 1009.1 |
| 20260507213557 | 59 | 156 | 0.0 | 1.0 | 0.00 | 0.21 | 0.21 | 73 | 1009.2 |
| 20260507213056 | 59 | 0 | 0.0 | 1.0 | 0.00 | 0.21 | 0.21 | 74 | 1009.3 |
| 20260507212556 | 59 | 157 | 0.0 | 1.0 | 0.00 | 0.21 | 0.21 | 73 | 1009.3 |
| 20260507212055 | 59 | 157 | 0.0 | 1.0 | 0.00 | 0.21 | 0.21 | 73 | 1009.1 |
| 20260507211602 | 59 | 0 | 0.0 | 1.0 | 0.00 | 0.21 | 0.21 | 73 | 1009.3 |
| 20260507211052 | 59 | 164 | 0.0 | 2.0 | 0.00 | 0.21 | 0.21 | 71 | 1009.2 |
| 20260507210559 | 59 | 0 | 0.0 | 2.0 | 0.00 | 0.21 | 0.21 | 69 | 1009.2 |
| 20260507210108 | 59 | 163 | 1.0 | 2.0 | 0.00 | 0.21 | 0.21 | 70 | 1009.1 |
| 20260507205554 | 59 | 0 | 0.0 | 1.0 | 0.00 | 0.21 | 0.21 | 70 | 1009.1 |
| 20260507205056 | 59 | 0 | 0.0 | 1.0 | 0.00 | 0.21 | 0.21 | 69 | 1008.8 |
| 20260507204558 | 59 | 152 | 0.0 | 1.0 | 0.00 | 0.21 | 0.21 | 68 | 1008.7 |
| 20260507204053 | 59 | 0 | 0.0 | 1.0 | 0.00 | 0.21 | 0.21 | 68 | 1008.9 |
| 20260507203554 | 58 | 0 | 0.0 | 1.0 | 0.00 | 0.21 | 0.21 | 68 | 1008.7 |
| 20260507203117 | 58 | 158 | 0.0 | 2.0 | 0.00 | 0.21 | 0.21 | 70 | 1008.8 |
| 20260507202553 | 58 | 159 | 0.0 | 2.0 | 0.00 | 0.21 | 0.21 | 70 | 1009.2 |
| 20260507202057 | 58 | 158 | 0.0 | 2.0 | 0.00 | 0.21 | 0.21 | 70 | 1009.2 |
| 20260507201557 | 58 | 0 | 0.0 | 2.0 | 0.00 | 0.21 | 0.21 | 69 | 1009.1 |
| 20260507201053 | 58 | 0 | 0.0 | 1.0 | 0.00 | 0.21 | 0.21 | 71 | 1009.1 |
| 20260507200556 | 58 | 297 | 0.0 | 1.0 | 0.00 | 0.21 | 0.21 | 71 | 1009.3 |
| 20260507200100 | 58 | 0 | 0.0 | 1.0 | 0.00 | 0.21 | 0.21 | 71 | 1009.1 |
| 20260507195555 | 58 | 160 | 0.0 | 1.0 | 0.00 | 0.21 | 0.21 | 72 | 1008.6 |
| 20260507195057 | 58 | 0 | 0.0 | 2.0 | 0.00 | 0.21 | 0.21 | 69 | 1008.7 |
| 20260507194618 | 58 | 62 | 0.0 | 3.0 | 0.00 | 0.21 | 0.21 | 71 | 1009.0 |
| 20260507194053 | 58 | 62 | 2.0 | 3.0 | 0.00 | 0.21 | 0.21 | 70 | 1009.2 |
| 20260507193553 | 58 | 72 | 0.0 | 2.0 | 0.00 | 0.21 | 0.21 | 72 | 1009.2 |
| 20260507193058 | 58 | 72 | 0.0 | 2.0 | 0.00 | 0.21 | 0.21 | 71 | 1009.2 |
| 20260507192553 | 58 | 74 | 0.0 | 2.0 | 0.00 | 0.21 | 0.21 | 71 | 1009.5 |
| 20260507192054 | 57 | 147 | 0.0 | 2.0 | 0.00 | 0.21 | 0.21 | 71 | 1009.5 |
| 20260507191555 | 57 | 53 | 0.0 | 2.0 | 0.00 | 0.21 | 0.21 | 70 | 1009.6 |
| 20260507191055 | 57 | 39 | 0.0 | 2.0 | 0.00 | 0.21 | 0.21 | 70 | 1009.8 |
| 20260507190552 | 57 | 338 | 1.0 | 2.0 | 0.00 | 0.21 | 0.21 | 70 | 1009.6 |
| 20260507185555 | 57 | 123 | 0.0 | 1.0 | 0.00 | 0.21 | 0.21 | 72 | 1009.9 |
| 20260507185053 | 57 | 123 | 0.0 | 1.0 | 0.00 | 0.21 | 0.21 | 74 | 1010.0 |
| 20260507184558 | 57 | 0 | 0.0 | 1.0 | 0.00 | 0.21 | 0.21 | 73 | 1010.0 |
| 20260507184055 | 57 | 0 | 0.0 | 1.0 | 0.00 | 0.21 | 0.21 | 73 | 1010.3 |
| 20260507183554 | 57 | 0 | 0.0 | 1.0 | 0.00 | 0.21 | 0.21 | 73 | 1010.2 |
| 20260507183056 | 57 | 126 | 0.0 | 1.0 | 0.00 | 0.21 | 0.21 | 70 | 1009.8 |
| 20260507182555 | 57 | 0 | 0.0 | 1.0 | 0.00 | 0.21 | 0.21 | 71 | 1010.2 |
| 20260507182053 | 57 | 0 | 0.0 | 1.0 | 0.00 | 0.21 | 0.21 | 76 | 1010.3 |
| 20260507181553 | 57 | 0 | 0.0 | 1.0 | 0.00 | 0.21 | 0.21 | 71 | 1010.3 |
| 20260507181053 | 57 | 0 | 0.0 | 1.0 | 0.00 | 0.21 | 0.21 | 72 | 1010.4 |
| 20260507180553 | 57 | 51 | 0.0 | 4.0 | 0.00 | 0.21 | 0.21 | 70 | 1010.6 |
| 20260507180055 | 57 | 51 | 3.0 | 4.0 | 0.00 | 0.21 | 0.21 | 69 | 1010.2 |
| 20260507175553 | 57 | 58 | 1.0 | 4.0 | 0.00 | 0.21 | 0.21 | 68 | 1010.3 |
| 20260507175054 | 57 | 0 | 0.0 | 4.0 | 0.00 | 0.21 | 0.21 | 70 | 1010.2 |
| 20260507174602 | 57 | 47 | 1.0 | 4.0 | 0.00 | 0.21 | 0.21 | 66 | 1010.2 |
| 20260507174056 | 58 | 146 | 2.0 | 4.0 | 0.00 | 0.21 | 0.21 | 68 | 1010.3 |
| 20260507173553 | 57 | 74 | 1.0 | 4.0 | 0.00 | 0.21 | 0.21 | 69 | 1010.5 |
| 20260507173129 | 57 | 0 | 2.0 | 4.0 | 0.00 | 0.21 | 0.21 | 68 | 1010.6 |
| 20260507172554 | 57 | 72 | 0.0 | 4.0 | 0.00 | 0.21 | 0.21 | 67 | 1010.6 |
| 20260507172051 | 57 | 143 | 0.0 | 4.0 | 0.00 | 0.21 | 0.21 | 70 | 1010.8 |
| 20260507171559 | 57 | 70 | 2.0 | 4.0 | 0.00 | 0.21 | 0.21 | 69 | 1010.8 |
| 20260507171055 | 57 | 48 | 1.0 | 4.0 | 0.00 | 0.21 | 0.21 | 71 | 1010.7 |
| 20260507170554 | 57 | 57 | 2.0 | 4.0 | 0.00 | 0.21 | 0.21 | 73 | 1010.7 |
| 20260507170058 | 57 | 64 | 2.0 | 5.0 | 0.00 | 0.21 | 0.21 | 71 | 1010.7 |
| 20260507165554 | 57 | 57 | 2.0 | 5.0 | 0.00 | 0.22 | 0.21 | 75 | 1010.8 |
| 20260507165053 | 57 | 58 | 0.0 | 3.0 | 0.00 | 0.22 | 0.21 | 74 | 1011.2 |
| 20260507164557 | 57 | 0 | 1.0 | 3.0 | 0.00 | 0.22 | 0.21 | 74 | 1011.6 |
| 20260507164053 | 57 | 73 | 2.0 | 3.0 | 0.00 | 0.22 | 0.21 | 75 | 1011.5 |
| 20260507163552 | 57 | 330 | 2.0 | 4.0 | 0.00 | 0.22 | 0.21 | 73 | 1011.5 |
| 20260507163055 | 57 | 55 | 1.0 | 4.0 | 0.00 | 0.22 | 0.21 | 75 | 1011.4 |
| 20260507162557 | 57 | 63 | 1.0 | 4.0 | 0.00 | 0.22 | 0.21 | 74 | 1011.5 |
| 20260507162056 | 57 | 65 | 2.0 | 4.0 | 0.00 | 0.22 | 0.21 | 77 | 1011.6 |
| 20260507161612 | 57 | 325 | 2.0 | 3.0 | 0.00 | 0.22 | 0.21 | 76 | 1011.7 |
| 20260507161055 | 56 | 59 | 1.0 | 2.0 | 0.00 | 0.22 | 0.21 | 76 | 1011.6 |
| 20260507160555 | 57 | 321 | 1.0 | 3.0 | 0.00 | 0.22 | 0.21 | 77 | 1011.8 |
| 20260507155555 | 56 | 65 | 1.0 | 2.0 | 0.00 | 0.24 | 0.21 | 77 | 1011.8 |
| 20260507155055 | 56 | 62 | 1.0 | 3.0 | 0.00 | 0.24 | 0.21 | 78 | 1011.7 |
| 20260507154558 | 56 | 50 | 1.0 | 3.0 | 0.00 | 0.24 | 0.21 | 77 | 1011.7 |
| 20260507154055 | 56 | 42 | 1.0 | 2.0 | 0.00 | 0.24 | 0.21 | 76 | 1011.7 |
| 20260507153554 | 57 | 340 | 0.0 | 3.0 | 0.00 | 0.24 | 0.21 | 77 | 1011.9 |
| 20260507153104 | 57 | 338 | 0.0 | 3.0 | 0.00 | 0.24 | 0.21 | 76 | 1011.8 |
| 20260507152647 | 57 | 66 | 1.0 | 3.0 | 0.00 | 0.24 | 0.21 | 76 | 1011.8 |
| 20260507150552 | 56 | 18 | 1.0 | 3.0 | 0.00 | 0.24 | 0.21 | 78 | 1012.1 |
| 20260507145554 | 56 | 350 | 1.0 | 4.0 | 0.00 | 0.24 | 0.21 | 77 | 1012.1 |
| 20260507145052 | 56 | 334 | 1.0 | 3.0 | 0.00 | 0.24 | 0.21 | 78 | 1012.0 |
| 20260507144612 | 56 | 321 | 1.0 | 3.0 | 0.00 | 0.24 | 0.21 | 77 | 1012.1 |
| 20260507144058 | 56 | 333 | 0.0 | 3.0 | 0.00 | 0.24 | 0.21 | 79 | 1012.2 |
| 20260507143554 | 56 | 54 | 1.0 | 3.0 | 0.00 | 0.24 | 0.21 | 81 | 1012.3 |
| 20260507143100 | 56 | 318 | 1.0 | 4.0 | 0.00 | 0.24 | 0.21 | 80 | 1012.3 |
| 20260507142553 | 56 | 319 | 2.0 | 4.0 | 0.00 | 0.24 | 0.21 | 79 | 1012.2 |
| 20260507142056 | 56 | 39 | 1.0 | 3.0 | 0.00 | 0.24 | 0.21 | 80 | 1012.2 |
| 20260507141603 | 56 | 35 | 2.0 | 3.0 | 0.00 | 0.24 | 0.21 | 79 | 1012.2 |
| 20260507141054 | 56 | 51 | 1.0 | 4.0 | 0.00 | 0.24 | 0.21 | 81 | 1012.2 |
| 20260507140554 | 56 | 53 | 2.0 | 5.0 | 0.00 | 0.24 | 0.21 | 81 | 1012.1 |
| 20260507140056 | 56 | 56 | 1.0 | 5.0 | 0.00 | 0.24 | 0.21 | 81 | 1012.3 |
| 20260507135600 | 56 | 141 | 1.0 | 5.0 | 0.00 | 0.24 | 0.21 | 83 | 1012.2 |
| 20260507135053 | 56 | 153 | 1.0 | 5.0 | 0.00 | 0.24 | 0.21 | 84 | 1012.1 |
| 20260507134555 | 56 | 50 | 2.0 | 5.0 | 0.00 | 0.24 | 0.21 | 84 | 1012.1 |
| 20260507134054 | 56 | 51 | 2.0 | 5.0 | 0.00 | 0.24 | 0.21 | 85 | 1012.1 |
| 20260507133555 | 55 | 0 | 2.0 | 5.0 | 0.00 | 0.24 | 0.21 | 83 | 1012.2 |
| 20260507133139 | 55 | 314 | 2.0 | 5.0 | 0.00 | 0.24 | 0.21 | 85 | 1012.0 |
| 20260507132554 | 55 | 46 | 2.0 | 3.0 | 0.00 | 0.24 | 0.21 | 88 | 1012.1 |
| 20260507132054 | 55 | 49 | 1.0 | 3.0 | 0.00 | 0.24 | 0.21 | 87 | 1012.1 |
| 20260507131554 | 55 | 333 | 0.0 | 2.0 | 0.00 | 0.24 | 0.21 | 88 | 1012.2 |
| 20260507131054 | 55 | 27 | 0.0 | 2.0 | 0.00 | 0.24 | 0.21 | 88 | 1012.2 |
| 20260507130558 | 55 | 340 | 1.0 | 2.0 | 0.00 | 0.24 | 0.21 | 87 | 1012.3 |
| 20260507130107 | 55 | 43 | 0.0 | 2.0 | 0.00 | 0.24 | 0.21 | 88 | 1012.1 |
| 20260507125554 | 54 | 340 | 1.0 | 2.0 | 0.00 | 0.24 | 0.21 | 88 | 1012.1 |
| 20260507125054 | 54 | 0 | 1.0 | 2.0 | 0.00 | 0.24 | 0.21 | 87 | 1012.1 |
| 20260507124601 | 54 | 346 | 1.0 | 2.0 | 0.00 | 0.24 | 0.21 | 87 | 1012.1 |
| 20260507124057 | 54 | 45 | 0.0 | 1.0 | 0.00 | 0.24 | 0.21 | 88 | 1012.3 |
| 20260507123635 | 54 | 345 | 0.0 | 1.0 | 0.00 | 0.24 | 0.21 | 89 | 1012.4 |
| 20260507123552 | 54 | 345 | 0.0 | 1.0 | 0.00 | 0.24 | 0.21 | 89 | 1012.4 |
| 20260507123058 | 54 | 18 | 0.0 | 1.0 | 0.00 | 0.24 | 0.21 | 88 | 1012.3 |
| 20260507122553 | 54 | 0 | 0.0 | 1.0 | 0.00 | 0.24 | 0.21 | 89 | 1012.2 |
| 20260507122052 | 54 | 61 | 0.0 | 1.0 | 0.00 | 0.24 | 0.21 | 89 | 1012.2 |
| 20260507121603 | 54 | 61 | 0.0 | 1.0 | 0.00 | 0.24 | 0.21 | 89 | 1012.4 |
| 20260507121055 | 53 | 61 | 0.0 | 1.0 | 0.00 | 0.24 | 0.21 | 89 | 1012.2 |
| 20260507120554 | 53 | 0 | 0.0 | 1.0 | 0.00 | 0.24 | 0.21 | 89 | 1012.1 |
| 20260507120105 | 53 | 0 | 0.0 | 1.0 | 0.00 | 0.24 | 0.21 | 90 | 1012.2 |
| 20260507115555 | 53 | 0 | 0.0 | 1.0 | 0.00 | 0.24 | 0.21 | 89 | 1012.2 |
| 20260507115055 | 53 | 53 | 0.0 | 1.0 | 0.00 | 0.24 | 0.21 | 89 | 1012.0 |
| 20260507114610 | 53 | 53 | 0.0 | 1.0 | 0.00 | 0.24 | 0.21 | 89 | 1011.9 |
| 20260507114054 | 53 | 53 | 0.0 | 2.0 | 0.00 | 0.24 | 0.21 | 89 | 1011.9 |
| 20260507113556 | 53 | 53 | 0.0 | 2.0 | 0.00 | 0.24 | 0.21 | 90 | 1012.1 |
| 20260507113059 | 53 | 53 | 0.0 | 1.0 | 0.00 | 0.24 | 0.21 | 90 | 1012.0 |
| 20260507112553 | 53 | 0 | 0.0 | 2.0 | 0.00 | 0.24 | 0.21 | 90 | 1011.9 |
| 20260507112057 | 53 | 50 | 1.0 | 2.0 | 0.00 | 0.24 | 0.21 | 90 | 1011.9 |
| 20260507111603 | 53 | 50 | 1.0 | 2.0 | 0.00 | 0.24 | 0.21 | 90 | 1011.8 |
| 20260507111052 | 53 | 49 | 1.0 | 2.0 | 0.00 | 0.24 | 0.21 | 91 | 1011.7 |
| 20260507110558 | 53 | 61 | 1.0 | 3.0 | 0.00 | 0.24 | 0.21 | 91 | 1011.8 |
| 20260507105554 | 53 | 58 | 1.0 | 3.0 | 0.00 | 0.24 | 0.21 | 92 | 1011.6 |
| 20260507105052 | 53 | 58 | 1.0 | 2.0 | 0.00 | 0.24 | 0.21 | 91 | 1011.8 |
| 20260507104559 | 53 | 58 | 0.0 | 2.0 | 0.00 | 0.24 | 0.21 | 91 | 1012.0 |
| 20260507104054 | 53 | 58 | 0.0 | 2.0 | 0.00 | 0.24 | 0.21 | 92 | 1011.9 |
| 20260507103554 | 53 | 0 | 0.0 | 1.0 | 0.00 | 0.24 | 0.21 | 91 | 1011.9 |
| 20260507103056 | 53 | 0 | 0.0 | 1.0 | 0.00 | 0.24 | 0.21 | 92 | 1011.9 |
| 20260507102553 | 53 | 32 | 0.0 | 2.0 | 0.00 | 0.24 | 0.21 | 92 | 1011.5 |
| 20260507102054 | 54 | 0 | 0.0 | 2.0 | 0.00 | 0.24 | 0.21 | 93 | 1011.5 |
| 20260507101555 | 54 | 59 | 1.0 | 2.0 | 0.00 | 0.24 | 0.21 | 94 | 1011.4 |
| 20260507101052 | 54 | 46 | 0.0 | 3.0 | 0.00 | 0.24 | 0.21 | 94 | 1011.6 |
| 20260507100555 | 54 | 56 | 1.0 | 3.0 | 0.00 | 0.24 | 0.21 | 94 | 1011.5 |
| 20260507100058 | 54 | 0 | 0.0 | 1.0 | 0.00 | 0.24 | 0.21 | 94 | 1011.6 |
| 20260507095555 | 54 | 26 | 0.0 | 1.0 | 0.00 | 0.24 | 0.21 | 95 | 1011.5 |
| 20260507095052 | 54 | 333 | 0.0 | 3.0 | 0.00 | 0.24 | 0.21 | 95 | 1011.5 |
| 20260507094601 | 54 | 33 | 0.0 | 3.0 | 0.00 | 0.24 | 0.21 | 95 | 1011.5 |
| 20260507094057 | 54 | 59 | 0.0 | 3.0 | 0.00 | 0.24 | 0.21 | 95 | 1011.4 |
| 20260507093554 | 54 | 60 | 0.0 | 2.0 | 0.00 | 0.24 | 0.21 | 95 | 1011.3 |